Zurück zum Katalog

ARIANE 3 DEB

AktivHEO
NORAD 27025·DEBRIS·🇫🇷 France

Gestartet Mar 28, 1986 von Guiana Space Centre

Loading…

Nächste Überflüge (nächste 24 Stunden)

TLE

AktuellSource: Space-Track

Epoche: Sep 12, 2026, 05:04 UTC

1 27025U 86026J   26255.21151981 -.00000053  00000-0  10033-2 0  9994
2 27025   6.8632 322.1425 7032255  59.7802 351.1319  2.49770205225522

Verfolge ARIANE 3 DEB in Echtzeit mit AllMySat

Download on the App Store